Home   Weather   Yavatmal   Past weeks

Flag for India Past Weather in Yavatmal, Maharashtra, India — Yesterday and Last 2 Weeks

Now
79 °F

Haze.


Feels Like: 79 °F
Forecast: 63 / 85 °F
Wind: 2 mph from Southeast

Location: Nagpur Sonegaon

Current Time: Jan 22, 2017 at 7:52:23 pm

Latest Report: Jan 22, 2017 at 7:00 pm


Visibility: 2 mi

Pressure: 30.07 "Hg

Humidity: 42%

Dew Point: 54 °F

Location of YavatmalLocation

Past Weather in Yavatmal — Graph

°F

Yavatmal Temperature Yesterday

Maximum temperature yesterday: 88 °F (at 2:30 pm)
Minimum temperature yesterday: 59 °F (at 7:00 am)
Average temperature yesterday: 74 °F

High & Low Weather Summary for the Past Weeks

 TemperatureHumidityPressure
High90 °F (Jan 22, 2:30 pm)100% (Jan 9, 6:32 am)30.21 "Hg (Jan 9, 6:32 am)
Low50 °F (Jan 12, 7:30 am)18% (Jan 15, 2:30 pm)29.83 "Hg (Jan 7, 6:30 pm)
Average70 °F55%30.01 "Hg
* Reported Jan 7 6:30 pm — Jan 22 6:30 pm, Yavatmal, Weather by CustomWeather, © 2017

Note: Actual official high and low records may vary slightly from our data, if they occured in-between our weather recording intervals... More about our weather records

Advertising

Yavatmal Weather History for the Previous 24 Hours

Scroll right to see more
 ConditionsComfort  
Time TempWeatherWind HumidityBarometerVisibility
6:30 pm
Sun, Jan 22
79 °FHaze.3 mph39%30.04 "Hg2 mi
5:30 pm84 °FHaze.2 mph35%30.04 "Hg2 mi
5:00 pm86 °FHaze.3 mph27%30.04 "Hg2 mi
4:30 pm88 °FHaze.3 mph25%30.01 "Hg2 mi
4:00 pm90 °FHaze.3 mph26%30.04 "Hg2 mi
3:30 pm88 °FHaze.6 mph27%30.04 "Hg2 mi
2:30 pm90 °FHaze.2 mph31%30.04 "Hg2 mi
2:00 pm88 °FHaze.2 mph31%30.07 "Hg2 mi
1:30 pm88 °FHaze.2 mph31%30.07 "Hg1 mi
1:00 pm86 °FHaze.5 mph33%30.09 "Hg1 mi
12:30 pm86 °FHaze.5 mph31%30.12 "Hg1 mi
12:00 pm84 °FHaze.3 mph35%30.15 "Hg1 mi
11:30 am82 °FHaze.3 mph37%30.15 "Hg1 mi
11:00 am82 °FHaze.5 mph37%30.18 "Hg1 mi
10:30 am77 °FHaze.5 mph42%30.21 "Hg1 mi
10:00 am77 °FHaze.5 mph42%30.21 "Hg1 mi
9:30 am73 °FHaze.3 mph50%30.21 "Hg1 mi
9:00 am70 °FHaze.2 mph57%30.18 "Hg1 mi
8:30 am70 °FHaze.No wind57%30.18 "Hg1 mi
8:00 am66 °FHaze.No wind64%30.18 "Hg1 mi
7:30 am64 °FScattered clouds.2 mph68%30.15 "Hg1 mi
7:00 am63 °FPassing clouds.No wind68%30.15 "Hg1 mi
6:30 am64 °FHaze.2 mph68%30.15 "Hg1 mi
6:00 am66 °FHaze.2 mph64%30.12 "Hg1 mi
5:30 am66 °FHaze.2 mph64%30.09 "Hg1 mi
4:00 am66 °FHaze.2 mph64%30.09 "Hg1 mi
3:00 am64 °FHaze.2 mph64%30.09 "Hg1 mi
2:00 am68 °FHaze.3 mph60%30.09 "Hg1 mi
1:30 am68 °FHaze.3 mph60%30.09 "Hg1 mi
1:00 am66 °FHaze.No wind64%30.12 "Hg1 mi
12:00 am68 °FHaze.No wind60%30.12 "Hg1 mi
11:30 pm
Sat, Jan 21
70 °FHaze.No wind57%30.12 "Hg1 mi
11:00 pm70 °FHaze.No wind57%30.12 "Hg1 mi
10:30 pm72 °FHaze.No wind53%30.12 "Hg1 mi
10:00 pm72 °FHaze.No wind57%30.12 "Hg1 mi
9:30 pm72 °FHaze.No wind53%30.12 "Hg1 mi
9:00 pm72 °FHaze.No wind53%30.12 "Hg1 mi
8:30 pm73 °FHaze.No wind50%30.09 "Hg1 mi
8:00 pm73 °FHaze.No wind50%30.09 "Hg1 mi
7:30 pm75 °FHaze.No wind47%30.09 "Hg1 mi
7:00 pm79 °FHaze.No wind42%30.07 "Hg1 mi
Weather by CustomWeather, © 2017

See weather overviewHow to use our weather pages